Powrót do katalogu

STARLINK-31242

AktywnyŁącznośćVLEO
NORAD 58864·PAYLOAD·🇺🇸 United States

Wystrzelony Jan 29, 2024 z Cape Canaveral Space Force Station

Loading…

Następne Przeloty (najbliższe 24 godziny)

TLE

ŚwieżeSource: CelesTrak SupGP

Epoka: Sep 14, 2026, 21:25 UTC

1 58864C 24019M   26257.89284722  .00025304  00000+0  91668-3 0  2574
2 58864  43.0024 260.4051 0001344 266.9827 269.6384 15.27560019    11

Śledź STARLINK-31242 w czasie rzeczywistym z AllMySat

Download on the App Store